User: anonymous   Login
Location: Taupo
(38.6830°S, 176.0830°E)
Time: 14:00:26
(UTC+13:00)
Language:

Cosmos 1844 Rocket - Orbit

View from above orbital plane
View from above orbital plane
View from above satellite
View from above satellite

Ground track
Ground track

The orbit data is extracted from the following two-line orbital elements,

1 17974U 87041B   19326.24953056 -.00000233  00000-0 -91764-4 0  9994
2 17974  71.0078 198.7570 0011951 122.6968 352.4041 14.17257821682509
Epoch (UTC): 22 November 2019 05:59:19
Eccentricity: 0.0011951
inclination: 71.0078°
perigee height: 826 km
apogee height: 843 km
right ascension of ascending node: 198.7570°
argument of perigee: 122.6968°
revolutions per day: 14.17257821
mean anomaly at epoch: 352.4041°
orbit number at epoch: 68250

The dashed part of the orbit path shows where the satellite is in the earth's shadow,  

DLR